CW0262 Weather Reports


Display with metric or nautical units.
time (UTC)temp
F
wind
direction
speed
MPH
gust
MPH
rain 1hr
in
rain 24hr
in
rain mn
in
humidity
%
barometer
mb
20260509003704 79 120 2.0 3.0 0.00 0.00 0.00 87 1013.2
20260509003205 79 142 2.0 3.0 0.00 0.00 0.00 86 1013.2
20260509001705 79 125 2.0 3.0 0.00 0.00 0.00 85 1012.2
20260509000704 80 142 3.0 6.0 0.00 0.00 0.00 84 1012.2
20260509000205 80 127 4.0 6.0 0.00 0.00 0.00 83 1012.2
20260508234703 81 115 3.0 6.0 0.00 0.00 0.00 80 1012.2
20260508234204 81 131 3.0 6.0 0.00 0.00 0.00 78 1012.2
20260508233705 82 152 5.0 8.0 0.00 0.00 0.00 78 1012.2
20260508231704 82 118 3.0 9.0 0.00 0.00 0.00 77 1012.2
20260508230704 83 141 5.0 8.0 0.00 0.00 0.00 75 1012.2
20260508230205 83 112 5.0 10.0 0.00 0.00 0.00 75 1012.2
20260508224705 83 119 6.0 9.0 0.00 0.00 0.00 73 1011.2
20260508224204 83 94 7.0 9.0 0.00 0.00 0.00 74 1011.2
20260508223203 83 97 7.0 10.0 0.00 0.00 0.00 76 1011.2
20260508221704 84 116 7.0 10.0 0.00 0.00 0.00 74 1012.2
20260508221204 84 93 6.0 8.0 0.00 0.00 0.00 73 1012.2
20260508220204 85 97 7.0 10.0 0.00 0.00 0.00 70 1012.2
20260508214204 85 102 3.0 6.0 0.00 0.00 0.00 73 1012.2
20260508213705 85 103 7.0 8.0 0.00 0.00 0.00 71 1012.2
20260508213205 85 95 7.0 12.0 0.00 0.00 0.00 71 1012.2
20260508211704 86 120 6.0 9.0 0.00 0.00 0.00 68 1012.2
20260508210204 86 102 6.0 10.0 0.00 0.00 0.00 69 1012.2
20260508204203 86 117 7.0 9.0 0.00 0.00 0.00 70 1012.2
20260508203705 85 81 7.0 9.0 0.00 0.00 0.00 70 1012.2
20260508203204 85 102 6.0 13.0 0.00 0.00 0.00 71 1012.2
20260508201704 85 81 9.0 12.0 0.00 0.00 0.00 67 1012.2
20260508201205 85 90 8.0 13.0 0.00 0.00 0.00 69 1012.9
20260508200703 85 95 8.0 13.0 0.00 0.00 0.00 71 1013.2
20260508200204 85 74 8.0 12.0 0.00 0.00 0.00 68 1013.2
20260508194705 86 97 8.0 12.0 0.00 0.00 0.00 68 1013.2
20260508194204 86 66 8.0 10.0 0.00 0.00 0.00 68 1013.2
20260508193705 86 93 6.0 10.0 0.00 0.00 0.00 68 1013.2
20260508193204 86 93 7.0 12.0 0.00 0.00 0.00 68 1013.2
20260508191704 87 94 7.0 10.0 0.00 0.00 0.00 66 1013.2
20260508191204 87 81 7.0 10.0 0.00 0.00 0.00 65 1013.2
20260508190704 87 69 7.0 9.0 0.00 0.00 0.00 67 1013.2
20260508190204 87 104 7.0 10.0 0.00 0.00 0.00 66 1013.2
20260508184705 87 91 7.0 10.0 0.00 0.00 0.00 64 1013.2
20260508184204 87 80 7.0 10.0 0.00 0.00 0.00 66 1014.0
20260508183704 87 78 7.0 10.0 0.00 0.00 0.00 66 1014.2
20260508183204 87 98 8.0 12.0 0.00 0.00 0.00 65 1014.2
20260508181705 87 79 9.0 13.0 0.00 0.00 0.00 65 1014.2
20260508181204 87 109 7.0 12.0 0.00 0.00 0.00 66 1014.2
20260508180704 87 98 7.0 9.0 0.00 0.00 0.00 66 1014.2
20260508180204 87 77 7.0 12.0 0.00 0.00 0.00 67 1014.2
20260508174704 87 79 8.0 10.0 0.00 0.00 0.00 66 1014.2
20260508171705 87 105 6.0 8.0 0.00 0.00 0.00 65 1014.2
20260508171204 87 97 8.0 10.0 0.00 0.00 0.00 65 1014.2
20260508170704 87 47 5.0 8.0 0.00 0.00 0.00 66 1014.2
20260508170204 86 73 6.0 10.0 0.00 0.00 0.00 65 1014.2
20260508164705 87 62 7.0 10.0 0.00 0.00 0.00 64 1015.2
20260508164205 88 92 6.0 9.0 0.00 0.00 0.00 63 1015.2
20260508161704 87 74 4.0 7.0 0.00 0.00 0.00 63 1015.2
20260508161204 88 65 5.0 8.0 0.00 0.00 0.00 62 1015.2
20260508160203 89 22 3.0 8.0 0.00 0.00 0.00 61 1015.2
20260508154703 90 87 5.0 10.0 0.00 0.00 0.00 61 1015.2
20260508154204 89 353 3.0 6.0 0.00 0.00 0.00 60 1015.2
20260508153704 89 77 5.0 6.0 0.00 0.00 0.00 62 1015.2
20260508153204 88 95 5.0 8.0 0.00 0.00 0.00 63 1015.2
20260508151704 87 80 4.0 8.0 0.00 0.00 0.00 64 1015.2
20260508151203 87 89 5.0 9.0 0.00 0.00 0.00 65 1015.7
20260508150704 86 21 3.0 5.0 0.00 0.00 0.00 66 1016.2
20260508150204 85 33 4.0 9.0 0.00 0.00 0.00 65 1016.2
20260508144705 86 22 6.0 12.0 0.00 0.00 0.00 65 1015.2
20260508144204 86 52 5.0 8.0 0.00 0.00 0.00 67 1015.2
20260508143704 86 34 5.0 6.0 0.00 0.00 0.00 67 1015.2
20260508143204 86 35 3.0 9.0 0.00 0.00 0.00 67 1015.2
20260508141205 85 35 3.0 8.0 0.00 0.00 0.00 69 1015.2
20260508140704 84 341 6.0 10.0 0.00 0.00 0.00 70 1015.2
20260508140204 84 358 4.0 8.0 0.00 0.00 0.00 72 1015.2
20260508134704 82 8 6.0 8.0 0.00 0.00 0.00 73 1015.2
20260508134204 82 9 3.0 6.0 0.00 0.00 0.00 74 1015.2
20260508133705 81 330 5.0 8.0 0.00 0.00 0.00 73 1015.2
20260508131704 82 4 5.0 7.0 0.00 0.00 0.00 68 1015.2
20260508131204 80 332 5.0 6.0 0.00 0.00 0.00 70 1015.2
20260508130703 80 359 2.0 8.0 0.00 0.00 0.00 73 1015.2
20260508130204 78 0 4.0 9.0 0.00 0.00 0.00 76 1015.2
20260508124704 77 4 4.0 8.0 0.00 0.00 0.00 76 1015.2
20260508124204 77 334 6.0 9.0 0.00 0.00 0.00 75 1015.2
20260508123704 77 344 3.0 6.0 0.00 0.00 0.00 76 1015.2
20260508123204 76 1 4.0 9.0 0.00 0.00 0.00 77 1015.2
20260508121704 77 315 5.0 8.0 0.00 0.00 0.00 75 1015.2
20260508120704 76 324 2.0 6.0 0.00 0.00 0.00 80 1015.2
20260508120204 75 315 3.0 3.0 0.00 0.00 0.00 80 1015.2
20260508114705 74 295 0.0 2.0 0.00 0.00 0.00 81 1015.2
20260508114203 74 293 2.0 3.0 0.00 0.00 0.00 80 1014.3
20260508113705 74 310 3.0 3.0 0.00 0.00 0.00 80 1014.2
20260508113205 74 293 1.0 5.0 0.00 0.00 0.00 79 1014.2
20260508111204 74 298 1.0 3.0 0.00 0.00 0.00 91 1014.2
20260508110704 73 284 1.0 3.0 0.00 0.00 0.00 94 1014.2
20260508110204 72 298 0.0 3.0 0.00 0.00 0.00 96 1014.2
20260508104704 69 281 2.0 3.0 0.00 0.00 0.00 98 1014.2
20260508104204 69 281 0.0 0.0 0.00 0.00 0.00 98 1013.5
20260508103704 69 281 0.0 0.0 0.00 0.00 0.00 97 1013.2
20260508103203 69 281 0.0 0.0 0.00 0.00 0.00 97 1013.2
20260508101705 69 337 0.0 0.0 0.00 0.00 0.00 98 1013.2
20260508101205 69 337 0.0 0.0 0.00 0.00 0.00 98 1013.2
20260508100703 69 337 0.0 0.0 0.00 0.00 0.00 97 1013.2
20260508100203 69 337 0.0 0.0 0.00 0.00 0.00 97 1013.2
20260508094204 69 337 0.0 0.0 0.00 0.00 0.00 97 1013.2
20260508093704 69 337 0.0 0.0 0.00 0.00 0.00 97 1013.2
20260508093205 70 337 0.0 0.0 0.00 0.00 0.00 97 1013.2
20260508091704 70 337 0.0 0.0 0.00 0.00 0.00 97 1013.2
20260508091204 70 337 0.0 0.0 0.00 0.00 0.00 97 1013.2
20260508090705 70 337 0.0 0.0 0.00 0.00 0.00 98 1013.2
20260508090205 70 337 0.0 0.0 0.00 0.00 0.00 98 1013.2
20260508084704 71 307 0.0 0.0 0.00 0.00 0.00 97 1013.2
20260508084204 71 307 0.0 0.0 0.00 0.00 0.00 97 1013.2
20260508083704 71 307 0.0 0.0 0.00 0.00 0.00 97 1013.2
20260508083205 71 307 0.0 0.0 0.00 0.00 0.00 97 1013.2
20260508081703 71 320 0.0 0.0 0.00 0.00 0.00 98 1013.2
20260508080704 71 326 0.0 0.0 0.00 0.00 0.00 99 1013.2
20260508080204 71 326 0.0 0.0 0.00 0.00 0.00 99 1013.2
20260508074704 71 285 0.0 0.0 0.00 0.00 0.00 99 1013.2
20260508074204 71 285 0.0 0.0 0.00 0.00 0.00 99 1013.2
20260508073204 72 285 0.0 0.0 0.00 0.00 0.00 98 1013.2
20260508071704 72 285 0.0 0.0 0.00 0.00 0.00 97 1013.2
20260508071203 72 285 0.0 0.0 0.00 0.00 0.00 96 1013.2
20260508070704 72 285 0.0 0.0 0.00 0.00 0.00 96 1013.2
20260508070204 72 285 0.0 0.0 0.00 0.00 0.00 96 1013.2
20260508064704 72 285 0.0 0.0 0.00 0.00 0.00 95 1013.2
20260508064205 73 285 0.0 0.0 0.00 0.00 0.00 95 1013.2
20260508063704 73 285 0.0 0.0 0.00 0.00 0.00 95 1013.2
20260508063204 73 285 0.0 0.0 0.00 0.00 0.00 95 1013.2
20260508061704 73 286 0.0 0.0 0.00 0.00 0.00 94 1014.2
20260508060704 74 285 0.0 0.0 0.00 0.00 0.00 93 1014.2
20260508060205 74 285 0.0 2.0 0.00 0.00 0.00 93 1014.2
20260508054703 74 280 0.0 2.0 0.00 0.00 0.00 90 1014.2
20260508054204 74 278 0.0 0.0 0.00 0.00 0.00 90 1014.2
20260508053704 75 270 0.0 0.0 0.00 0.00 0.00 89 1014.2
20260508051704 75 266 0.0 0.0 0.00 0.00 0.00 88 1014.2
20260508050705 75 267 2.0 3.0 0.00 0.00 0.00 88 1014.2
20260508050203 75 277 2.0 3.0 0.00 0.00 0.00 88 1014.2
20260508044704 76 238 2.0 3.0 0.00 0.00 0.00 87 1014.2
20260508043704 76 270 1.0 3.0 0.00 0.00 0.00 87 1014.2
20260508041203 77 237 5.0 6.0 0.00 0.00 0.00 85 1014.2
20260508040704 77 222 5.0 6.0 0.00 0.00 0.00 85 1014.2
20260508040204 77 226 5.0 9.0 0.00 0.00 0.00 86 1014.2
20260508034704 78 229 5.0 6.0 0.00 0.00 0.00 85 1014.2
20260508034204 78 220 3.0 6.0 0.00 0.00 0.00 85 1014.2
20260508031703 78 259 5.0 6.0 0.00 0.00 0.00 83 1014.2
20260508030704 79 231 6.0 8.0 0.00 0.00 0.00 83 1014.2
20260508030204 79 223 5.0 7.0 0.00 0.00 0.00 82 1014.2
20260508024705 80 212 4.0 6.0 0.00 0.00 0.00 82 1014.2
20260508024205 80 208 5.0 8.0 0.00 0.00 0.00 82 1013.5
20260508023203 80 229 5.0 10.0 0.00 0.00 0.00 82 1013.2
20260508021704 80 218 6.0 8.0 0.00 0.00 0.00 82 1013.2
20260508021205 80 218 5.0 6.0 0.00 0.00 0.00 82 1013.2
20260508020704 81 219 6.0 9.0 0.00 0.00 0.00 81 1013.2
20260508020205 81 199 6.0 10.0 0.00 0.00 0.00 81 1013.2
20260508014204 81 202 5.0 8.0 0.00 0.00 0.00 81 1013.2
20260508013704 81 195 6.0 8.0 0.00 0.00 0.00 82 1013.2
20260508013204 81 207 5.0 9.0 0.00 0.00 0.00 82 1013.2
20260508011705 82 203 6.0 9.0 0.00 0.00 0.00 82 1013.2
20260508010704 82 182 5.0 9.0 0.00 0.00 0.00 81 1013.2
20260508010204 82 185 7.0 10.0 0.00 0.00 0.00 81 1013.2
20260508004704 83 177 6.0 9.0 0.00 0.00 0.00 80 1013.2
20260508004204 83 186 5.0 6.0 0.00 0.00 0.00 80 1013.2